When you browse on this site, cookies collect data to enhance your experience and personalize the content and advertising you see.
Visit our Privacy Policy to learn more. By continuing to use the site, you agree to this use of cookies and data.
  • En España
  • Lista de países
  • Para 7 días
  • Temperatura del agua
  • El tiempo en el mapa
  • Informadores
  • user-avatar
    Iniciar sesión

    Tiempo cada hora Malanje

    Hoy, 11 Diciembre, Miércoles

    Tiempo Temperatura Precipitaciones Viento Presión Humedad
    00:00 +18°C° 0 mm 1 mps 664 mmHg 93%
    01:00 +16°C° 0 mm 1 mps 664 mmHg 95%
    02:00 +16°C° 0 mm 1 mps 663 mmHg 96%
    03:00 +16°C° 0 mm 1 mps 663 mmHg 97%
    04:00 +15°C° 0 mm 1 mps 663 mmHg 98%
    05:00 +16°C° 0 mm 2 mps 664 mmHg 96%
    06:00 +17°C° 0 mm 2 mps 664 mmHg 94%
    07:00 +18°C° 0 mm 2 mps 665 mmHg 92%
    08:00 +20°C° 0 mm 2 mps 666 mmHg 82%
    09:00 +23°C° 0 mm 2 mps 666 mmHg 72%
    10:00 +26°C° 0 mm 1 mps 666 mmHg 62%
    11:00 +27°C° 0 mm 1 mps 666 mmHg 59%
    12:00 +28°C° 0 mm 1 mps 666 mmHg 56%
    13:00 +30°C° 0 mm 1 mps 665 mmHg 53%
    14:00 +29°C° 0 mm 1 mps 665 mmHg 56%
    15:00 +29°C° 0 mm 1 mps 664 mmHg 60%
    16:00 +28°C° 0 mm 1 mps 663 mmHg 64%
    17:00 +26°C° 0 mm 1 mps 663 mmHg 70%
    18:00 +24°C° 0 mm 1 mps 663 mmHg 76%
    19:00 +22°C° 0 mm 1 mps 664 mmHg 82%
    20:00 +22°C° 0 mm 1 mps 664 mmHg 81%
    21:00 +21°C° 0 mm 1 mps 665 mmHg 81%
    22:00 +21°C° 0 mm 1 mps 665 mmHg 80%
    23:00 +20°C° 0 mm 1 mps 665 mmHg 82%

    Mañana, 12 Diciembre, Jueves

    Tiempo Temperatura Precipitaciones Viento Presión Humedad
    00:00 +20°C° 0 mm 1 mps 665 mmHg 84%
    01:00 +18°C° 0 mm 0 mps 664 mmHg 85%
    02:00 +17°C° 0 mm 0 mps 664 mmHg 87%
    03:00 +17°C° 0 mm 0 mps 664 mmHg 88%
    04:00 +17°C° 0 mm 0 mps 664 mmHg 90%
    05:00 +19°C° 0 mm 1 mps 664 mmHg 89%
    06:00 +20°C° 0 mm 1 mps 665 mmHg 88%
    07:00 +20°C° 0 mm 1 mps 666 mmHg 87%
    08:00 +21°C° 0 mm 1 mps 666 mmHg 86%
    09:00 +21°C° 0 mm 1 mps 666 mmHg 85%
    10:00 +21°C° 0 mm 2 mps 666 mmHg 84%
    11:00 +21°C° 0 mm 2 mps 665 mmHg 84%
    12:00 +21°C° 0 mm 2 mps 665 mmHg 84%
    13:00 +21°C° 0 mm 2 mps 664 mmHg 84%
    14:00 +23°C° 0 mm 2 mps 664 mmHg 81%
    15:00 +24°C° 0 mm 1 mps 664 mmHg 77%
    16:00 +24°C° 0 mm 1 mps 663 mmHg 74%
    17:00 +23°C° 0 mm 1 mps 664 mmHg 79%
    18:00 +21°C° 0 mm 1 mps 664 mmHg 85%
    19:00 +20°C° 0 mm 1 mps 664 mmHg 91%
    20:00 +20°C° 0 mm 1 mps 665 mmHg 92%
    21:00 +19°C° 0 mm 1 mps 665 mmHg 92%
    22:00 +19°C° 0 mm 1 mps 665 mmHg 93%
    23:00 +19°C° 0 mm 1 mps 665 mmHg 93%

    Pasado mañana, 13 Diciembre, Viernes

    Tiempo Temperatura Precipitaciones Viento Presión Humedad
    00:00 +19°C° 0 mm 1 mps 665 mmHg 93%
    01:00 +19°C° 0 mm 1 mps 665 mmHg 93%
    02:00 +19°C° 0 mm 1 mps 665 mmHg 93%
    03:00 +19°C° 0 mm 1 mps 664 mmHg 93%
    04:00 +18°C° 0 mm 0 mps 664 mmHg 93%
    05:00 +18°C° 0 mm 0 mps 665 mmHg 92%
    06:00 +18°C° 0 mm 0 mps 665 mmHg 91%
    07:00 +19°C° 0 mm 0 mps 665 mmHg 91%
    08:00 +22°C° 0 mm 1 mps 666 mmHg 85%
    09:00 +23°C° 0 mm 1 mps 666 mmHg 79%
    10:00 +24°C° 0 mm 1 mps 666 mmHg 74%
    11:00 +24°C° 0 mm 1 mps 665 mmHg 74%
    12:00 +25°C° 0 mm 1 mps 664 mmHg 75%
    13:00 +23°C° 0 mm 0 mps 664 mmHg 76%
    14:00 +25°C° 0.5 mm 1 mps 664 mmHg 77%
    15:00 +25°C° 0.5 mm 1 mps 663 mmHg 78%
    16:00 +25°C° 0.5 mm 1 mps 663 mmHg 79%
    17:00 +22°C° 0.4 mm 0 mps 663 mmHg 82%
    18:00 +21°C° 0.4 mm 0 mps 663 mmHg 85%
    19:00 +19°C° 0.4 mm 0 mps 664 mmHg 88%
    20:00 +19°C° 0.1 mm 0 mps 664 mmHg 89%
    21:00 +21°C° 0.1 mm 1 mps 665 mmHg 89%
    22:00 +21°C° 0.1 mm 1 mps 665 mmHg 89%
    23:00 +21°C° 0.2 mm 1 mps 665 mmHg 91%

    14 Diciembre, Sábado

    Tiempo Temperatura Precipitaciones Viento Presión Humedad
    00:00 +20°C° 0.2 mm 1 mps 664 mmHg 93%
    01:00 +19°C° 0.2 mm 2 mps 664 mmHg 95%
    02:00 +20°C° 0.1 mm 1 mps 664 mmHg 96%
    03:00 +19°C° 0.1 mm 1 mps 664 mmHg 97%
    04:00 +19°C° 0.1 mm 1 mps 664 mmHg 98%
    05:00 +19°C° 0.7 mm 1 mps 664 mmHg 98%
    06:00 +19°C° 0.7 mm 1 mps 665 mmHg 98%
    07:00 +20°C° 0.7 mm 1 mps 665 mmHg 98%
    08:00 +20°C° 1.6 mm 1 mps 666 mmHg 98%
    09:00 +20°C° 1.6 mm 1 mps 666 mmHg 98%
    10:00 +20°C° 1.6 mm 1 mps 666 mmHg 99%
    11:00 +20°C° 0.8 mm 1 mps 665 mmHg 98%
    12:00 +20°C° 0.8 mm 1 mps 665 mmHg 98%
    13:00 +20°C° 0.8 mm 1 mps 664 mmHg 98%
    14:00 +21°C° 0 mm 1 mps 664 mmHg 96%
    15:00 +21°C° 0 mm 1 mps 664 mmHg 95%
    16:00 +21°C° 0 mm 1 mps 663 mmHg 94%
    17:00 +18°C° 0 mm 0 mps 663 mmHg 95%
    18:00 +18°C° 0 mm 0 mps 664 mmHg 96%
    19:00 +17°C° 0 mm 0 mps 664 mmHg 97%
    20:00 +17°C° 0 mm 0 mps 664 mmHg 96%
    21:00 +17°C° 0 mm 0 mps 665 mmHg 96%
    22:00 +17°C° 0 mm 0 mps 665 mmHg 95%
    23:00 +17°C° 0 mm 0 mps 665 mmHg 95%

    15 Diciembre, Domingo

    Tiempo Temperatura Precipitaciones Viento Presión Humedad
    00:00 +17°C° 0 mm 0 mps 665 mmHg 95%
    01:00 +17°C° 0 mm 0 mps 664 mmHg 95%
    02:00 +17°C° 0 mm 0 mps 664 mmHg 94%
    03:00 +17°C° 0 mm 0 mps 664 mmHg 94%
    04:00 +17°C° 0 mm 0 mps 663 mmHg 94%
    05:00 +17°C° 0 mm 0 mps 664 mmHg 93%
    06:00 +18°C° 0 mm 0 mps 664 mmHg 93%
    07:00 +18°C° 0 mm 0 mps 665 mmHg 92%
    08:00 +19°C° 0 mm 0 mps 665 mmHg 89%
    09:00 +20°C° 0 mm 0 mps 666 mmHg 87%
    10:00 +21°C° 0 mm 0 mps 666 mmHg 84%
    11:00 +24°C° 0.1 mm 1 mps 665 mmHg 79%
    12:00 +25°C° 0.1 mm 1 mps 665 mmHg 74%
    13:00 +26°C° 0.1 mm 1 mps 664 mmHg 70%
    14:00 +26°C° 0.3 mm 2 mps 664 mmHg 71%
    15:00 +26°C° 0.3 mm 2 mps 663 mmHg 71%
    16:00 +27°C° 0.3 mm 2 mps 663 mmHg 72%
    17:00 +25°C° 0.6 mm 2 mps 663 mmHg 79%
    18:00 +23°C° 0.6 mm 1 mps 663 mmHg 86%
    19:00 +21°C° 0.6 mm 1 mps 663 mmHg 94%
    20:00 +21°C° 0.3 mm 1 mps 663 mmHg 94%
    21:00 +20°C° 0.3 mm 1 mps 663 mmHg 95%
    22:00 +20°C° 0.3 mm 1 mps 664 mmHg 95%
    23:00 +20°C° 1.3 mm 1 mps 664 mmHg 96%

    16 Diciembre, Lunes

    Tiempo Temperatura Precipitaciones Viento Presión Humedad
    00:00 +17°C° 1.3 mm 0 mps 663 mmHg 97%
    01:00 +17°C° 1.3 mm 0 mps 663 mmHg 97%
    02:00 +17°C° 1.1 mm 0 mps 663 mmHg 98%
    03:00 +18°C° 1.1 mm 0 mps 663 mmHg 98%
    04:00 +18°C° 1.1 mm 0 mps 663 mmHg 98%
    05:00 +18°C° 0.3 mm 0 mps 663 mmHg 98%
    06:00 +18°C° 0.3 mm 0 mps 664 mmHg 97%
    07:00 +19°C° 0.3 mm 0 mps 664 mmHg 97%
    08:00 +20°C° 0.6 mm 0 mps 664 mmHg 93%
    09:00 +22°C° 0.6 mm 0 mps 665 mmHg 88%
    10:00 +24°C° 0.6 mm 0 mps 665 mmHg 84%
    11:00 +26°C° 1.2 mm 1 mps 664 mmHg 82%
    12:00 +26°C° 1.2 mm 1 mps 663 mmHg 80%
    13:00 +27°C° 1.2 mm 2 mps 662 mmHg 78%
    14:00 +27°C° 0.9 mm 2 mps 662 mmHg 80%
    15:00 +26°C° 0.9 mm 2 mps 662 mmHg 82%
    16:00 +26°C° 0.9 mm 2 mps 661 mmHg 84%
    17:00 +25°C° 0.6 mm 2 mps 662 mmHg 88%
    18:00 +23°C° 0.6 mm 2 mps 662 mmHg 91%
    19:00 +22°C° 0.6 mm 1 mps 662 mmHg 94%
    20:00 +21°C° 0 mm 1 mps 663 mmHg 94%
    21:00 +21°C° 0 mm 1 mps 663 mmHg 95%
    22:00 +21°C° 0 mm 1 mps 663 mmHg 95%
    23:00 +21°C° 0.4 mm 1 mps 663 mmHg 96%
    Mostrar más